When you browse on this site, cookies collect data to enhance your experience and personalize the content and advertising you see.
Visit our Privacy Policy to learn more. By continuing to use the site, you agree to this use of cookies and data.
  • In Hungary
  • List of Countries
  • For 7 days
  • Water Temperature
  • Satellite Maps
  • Weather Map
  • News
  • Weather Widgets
  • user-avatar
    Login

    Hourly Weather Paralia

    Today, 21 January, Monday

    Time Temperature Precipitation Wind Pressure Humidity
    00:00 +10°C° 0 mm 1 mps 747 mmHg 80%
    01:00 +10°C° 0 mm 1 mps 747 mmHg 79%
    02:00 +10°C° 0 mm 1 mps 747 mmHg 79%
    03:00 +9°C° 0 mm 1 mps 747 mmHg 79%
    04:00 +9°C° 0 mm 1 mps 747 mmHg 78%
    05:00 +9°C° 0 mm 1 mps 747 mmHg 78%
    06:00 +9°C° 0 mm 1 mps 748 mmHg 78%
    07:00 +9°C° 0 mm 1 mps 748 mmHg 79%
    08:00 +10°C° 0 mm 1 mps 748 mmHg 72%
    09:00 +12°C° 0 mm 1 mps 748 mmHg 66%
    10:00 +14°C° 0 mm 1 mps 748 mmHg 59%
    11:00 +14°C° 0 mm 1 mps 748 mmHg 58%
    12:00 +15°C° 0 mm 1 mps 748 mmHg 57%
    13:00 +15°C° 0 mm 1 mps 748 mmHg 57%
    14:00 +15°C° 0.1 mm 1 mps 748 mmHg 61%
    15:00 +14°C° 0.1 mm 1 mps 748 mmHg 65%
    16:00 +13°C° 0.1 mm 1 mps 748 mmHg 70%
    17:00 +12°C° 0.1 mm 1 mps 748 mmHg 74%
    18:00 +11°C° 0.1 mm 1 mps 748 mmHg 77%
    19:00 +9°C° 0.1 mm 2 mps 748 mmHg 81%
    20:00 +9°C° 0 mm 2 mps 749 mmHg 82%
    21:00 +9°C° 0 mm 2 mps 749 mmHg 82%
    22:00 +9°C° 0 mm 2 mps 749 mmHg 83%
    23:00 +9°C° 0 mm 2 mps 749 mmHg 82%

    Tomorrow, 22 January, Tuesday

    Time Temperature Precipitation Wind Pressure Humidity
    00:00 +9°C° 0 mm 2 mps 749 mmHg 82%
    01:00 +9°C° 0 mm 2 mps 749 mmHg 81%
    02:00 +9°C° 0.1 mm 2 mps 748 mmHg 80%
    03:00 +9°C° 0.1 mm 2 mps 748 mmHg 80%
    04:00 +9°C° 0.1 mm 2 mps 748 mmHg 79%
    05:00 +9°C° 0.1 mm 2 mps 748 mmHg 78%
    06:00 +9°C° 0.1 mm 2 mps 748 mmHg 77%
    07:00 +9°C° 0.1 mm 3 mps 748 mmHg 76%
    08:00 +10°C° 0.1 mm 3 mps 748 mmHg 73%
    09:00 +11°C° 0.1 mm 3 mps 747 mmHg 69%
    10:00 +12°C° 0.1 mm 3 mps 747 mmHg 66%
    11:00 +12°C° 0.2 mm 3 mps 747 mmHg 67%
    12:00 +13°C° 0.2 mm 3 mps 746 mmHg 67%
    13:00 +13°C° 0.2 mm 3 mps 745 mmHg 68%
    14:00 +13°C° 0.2 mm 3 mps 745 mmHg 70%
    15:00 +12°C° 0.2 mm 3 mps 744 mmHg 73%
    16:00 +12°C° 0.2 mm 3 mps 744 mmHg 76%
    17:00 +11°C° 0.2 mm 3 mps 744 mmHg 79%
    18:00 +10°C° 0.2 mm 3 mps 744 mmHg 81%
    19:00 +10°C° 0.2 mm 3 mps 743 mmHg 84%
    20:00 +10°C° 0.5 mm 3 mps 743 mmHg 85%
    21:00 +10°C° 0.5 mm 3 mps 743 mmHg 87%
    22:00 +10°C° 0.5 mm 3 mps 743 mmHg 88%
    23:00 +10°C° 0.7 mm 3 mps 743 mmHg 89%

    Day after tomorrow, 23 January, Wednesday

    Time Temperature Precipitation Wind Pressure Humidity
    00:00 +10°C° 0.7 mm 3 mps 743 mmHg 91%
    01:00 +10°C° 0.7 mm 3 mps 743 mmHg 92%
    02:00 +10°C° 1.3 mm 3 mps 743 mmHg 92%
    03:00 +10°C° 1.3 mm 3 mps 742 mmHg 91%
    04:00 +10°C° 1.3 mm 3 mps 742 mmHg 91%
    05:00 +10°C° 2.6 mm 3 mps 742 mmHg 92%
    06:00 +9°C° 2.6 mm 3 mps 742 mmHg 93%
    07:00 +9°C° 2.6 mm 2 mps 742 mmHg 94%
    08:00 +10°C° 1.5 mm 2 mps 742 mmHg 92%
    09:00 +10°C° 1.5 mm 2 mps 742 mmHg 90%
    10:00 +10°C° 1.5 mm 2 mps 742 mmHg 89%
    11:00 +10°C° 0.6 mm 2 mps 741 mmHg 85%
    12:00 +11°C° 0.6 mm 3 mps 740 mmHg 81%
    13:00 +11°C° 0.6 mm 3 mps 739 mmHg 77%
    14:00 +11°C° 0.2 mm 3 mps 739 mmHg 76%
    15:00 +11°C° 0.2 mm 3 mps 738 mmHg 75%
    16:00 +11°C° 0.2 mm 3 mps 738 mmHg 74%
    17:00 +11°C° 0.2 mm 3 mps 737 mmHg 76%
    18:00 +10°C° 0.2 mm 2 mps 737 mmHg 78%
    19:00 +9°C° 0.2 mm 2 mps 737 mmHg 80%
    20:00 +9°C° 0.1 mm 2 mps 737 mmHg 81%
    21:00 +9°C° 0.1 mm 2 mps 736 mmHg 82%
    22:00 +9°C° 0.1 mm 3 mps 736 mmHg 83%
    23:00 +9°C° 0.1 mm 3 mps 735 mmHg 83%

    24 January, Thursday

    Time Temperature Precipitation Wind Pressure Humidity
    00:00 +9°C° 0.1 mm 3 mps 735 mmHg 84%
    01:00 +9°C° 0.1 mm 3 mps 734 mmHg 85%
    02:00 +9°C° 0.1 mm 3 mps 733 mmHg 86%
    03:00 +9°C° 0.1 mm 3 mps 733 mmHg 86%
    04:00 +9°C° 0.1 mm 3 mps 732 mmHg 87%
    05:00 +9°C° 0.3 mm 3 mps 732 mmHg 86%
    06:00 +9°C° 0.3 mm 2 mps 732 mmHg 86%
    07:00 +9°C° 0.3 mm 2 mps 732 mmHg 86%
    08:00 +10°C° 0.2 mm 2 mps 732 mmHg 83%
    09:00 +12°C° 0.2 mm 2 mps 732 mmHg 79%
    10:00 +13°C° 0.2 mm 2 mps 733 mmHg 75%
    11:00 +12°C° 1.4 mm 2 mps 733 mmHg 81%
    12:00 +10°C° 1.4 mm 2 mps 733 mmHg 86%
    13:00 +10°C° 1.4 mm 2 mps 733 mmHg 92%
    14:00 +10°C° 0.1 mm 2 mps 733 mmHg 90%
    15:00 +10°C° 0.1 mm 2 mps 734 mmHg 88%
    16:00 +10°C° 0.1 mm 2 mps 734 mmHg 86%
    17:00 +9°C° 0 mm 2 mps 734 mmHg 87%
    18:00 +8°C° 0 mm 2 mps 735 mmHg 88%
    19:00 +7°C° 0 mm 2 mps 735 mmHg 89%
    20:00 +8°C° 0 mm 2 mps 736 mmHg 87%
    21:00 +8°C° 0 mm 2 mps 736 mmHg 85%
    22:00 +8°C° 0 mm 3 mps 736 mmHg 83%
    23:00 +8°C° 0.5 mm 3 mps 736 mmHg 83%

    25 January, Friday

    Time Temperature Precipitation Wind Pressure Humidity
    00:00 +8°C° 0.5 mm 3 mps 736 mmHg 84%
    01:00 +8°C° 0.5 mm 3 mps 736 mmHg 84%
    02:00 +8°C° 1 mm 3 mps 735 mmHg 85%
    03:00 +8°C° 1 mm 3 mps 735 mmHg 86%
    04:00 +8°C° 1 mm 3 mps 735 mmHg 87%
    05:00 +8°C° 0.4 mm 3 mps 735 mmHg 86%
    06:00 +8°C° 0.4 mm 3 mps 734 mmHg 85%
    07:00 +8°C° 0.4 mm 2 mps 734 mmHg 85%
    08:00 +9°C° 0.7 mm 2 mps 734 mmHg 83%
    09:00 +9°C° 0.7 mm 2 mps 734 mmHg 81%
    10:00 +10°C° 0.7 mm 2 mps 734 mmHg 80%
    11:00 +10°C° 0.4 mm 2 mps 734 mmHg 76%
    12:00 +11°C° 0.4 mm 3 mps 734 mmHg 73%
    13:00 +11°C° 0.4 mm 3 mps 734 mmHg 69%
    14:00 +11°C° 0.5 mm 3 mps 733 mmHg 71%
    15:00 +10°C° 0.5 mm 2 mps 733 mmHg 74%
    16:00 +10°C° 0.5 mm 2 mps 733 mmHg 76%
    17:00 +9°C° 0.1 mm 2 mps 733 mmHg 78%
    18:00 +8°C° 0.1 mm 2 mps 733 mmHg 79%
    19:00 +7°C° 0.1 mm 2 mps 734 mmHg 81%
    20:00 +7°C° 0 mm 2 mps 734 mmHg 80%
    21:00 +7°C° 0 mm 2 mps 734 mmHg 80%
    22:00 +7°C° 0 mm 2 mps 734 mmHg 79%
    23:00 +6°C° 0 mm 2 mps 735 mmHg 80%

    26 January, Saturday

    Time Temperature Precipitation Wind Pressure Humidity
    00:00 +6°C° 0 mm 2 mps 735 mmHg 80%
    01:00 +6°C° 0 mm 2 mps 735 mmHg 80%
    02:00 +6°C° 0 mm 2 mps 735 mmHg 80%
    03:00 +6°C° 0 mm 2 mps 735 mmHg 80%
    04:00 +6°C° 0 mm 2 mps 735 mmHg 81%
    05:00 +6°C° 0.4 mm 2 mps 736 mmHg 81%
    06:00 +6°C° 0.4 mm 2 mps 736 mmHg 81%
    07:00 +7°C° 0.4 mm 2 mps 737 mmHg 82%
    08:00 +7°C° 0.6 mm 2 mps 737 mmHg 80%
    09:00 +8°C° 0.6 mm 2 mps 738 mmHg 77%
    10:00 +9°C° 0.6 mm 1 mps 738 mmHg 75%
    11:00 +10°C° 0.4 mm 1 mps 738 mmHg 73%
    12:00 +10°C° 0.4 mm 1 mps 738 mmHg 72%
    13:00 +11°C° 0.4 mm 1 mps 739 mmHg 70%
    14:00 +10°C° 0.1 mm 1 mps 739 mmHg 72%
    15:00 +10°C° 0.1 mm 1 mps 739 mmHg 73%
    16:00 +10°C° 0.1 mm 1 mps 740 mmHg 75%
    17:00 +9°C° 0.1 mm 1 mps 740 mmHg 77%
    18:00 +9°C° 0.1 mm 1 mps 740 mmHg 80%
    19:00 +8°C° 0.1 mm 1 mps 741 mmHg 82%
    20:00 +8°C° 0 mm 1 mps 741 mmHg 82%
    21:00 +7°C° 0 mm 1 mps 742 mmHg 83%
    22:00 +7°C° 0 mm 1 mps 742 mmHg 83%
    23:00 +7°C° 0 mm 1 mps 742 mmHg 83%
    Show more